| time (UTC) | temp F | wind direction | speed knots | gust knots | rain 1hr in | rain 24hr in | rain mn in | humidity % | barometer mb |
| 20260506164624 | 55 | 360 | 3.5 | 8.7 | 0.00 | 0.76 | 0.74 | 93 | 1011.4 |
| 20260506163101 | 55 | 360 | 2.6 | 7.0 | 0.00 | 0.76 | 0.74 | 94 | 1011.2 |
| 20260506161554 | 54 | 360 | 1.7 | 5.2 | 0.00 | 0.76 | 0.74 | 93 | 1011.2 |
| 20260506160113 | 54 | 360 | 1.7 | 5.2 | 0.01 | 0.76 | 0.74 | 93 | 1011.1 |
| 20260506154557 | 54 | 360 | 2.6 | 7.0 | 0.01 | 0.76 | 0.74 | 92 | 1010.9 |
| 20260506153051 | 55 | 360 | 1.7 | 7.8 | 0.01 | 0.76 | 0.74 | 92 | 1010.5 |
| 20260506151556 | 57 | 360 | 2.6 | 7.8 | 0.02 | 0.76 | 0.74 | 92 | 1010.0 |
| 20260506144551 | 60 | 360 | 0.9 | 4.3 | 0.02 | 0.75 | 0.73 | 95 | 1009.4 |
| 20260506143057 | 59 | 360 | 0.0 | 4.3 | 0.02 | 0.75 | 0.73 | 95 | 1009.4 |
| 20260506141551 | 59 | 360 | 0.0 | 2.6 | 0.01 | 0.74 | 0.72 | 95 | 1009.3 |
| 20260506140051 | 59 | 360 | 0.9 | 3.5 | 0.02 | 0.74 | 0.72 | 95 | 1008.8 |
| 20260506134554 | 59 | 0 | 0.0 | 2.6 | 0.03 | 0.73 | 0.71 | 95 | 1008.6 |
| 20260506133108 | 58 | 360 | 0.0 | 2.6 | 0.04 | 0.73 | 0.71 | 95 | 1008.2 |
| 20260506131611 | 58 | 360 | 0.9 | 3.5 | 0.04 | 0.73 | 0.71 | 96 | 1008.1 |
| 20260506130053 | 58 | 360 | 0.9 | 2.6 | 0.05 | 0.72 | 0.70 | 95 | 1008.1 |
| 20260506124552 | 57 | 360 | 0.0 | 7.0 | 0.04 | 0.70 | 0.68 | 95 | 1008.2 |
| 20260506123056 | 57 | 0 | 0.0 | 3.5 | 0.05 | 0.69 | 0.67 | 95 | 1007.8 |
| 20260506121556 | 57 | 360 | 0.0 | 2.6 | 0.09 | 0.69 | 0.67 | 95 | 1008.0 |
| 20260506120104 | 57 | 0 | 0.0 | 1.7 | 0.09 | 0.67 | 0.65 | 95 | 1007.7 |
| 20260506114550 | 57 | 0 | 0.0 | 0.9 | 0.08 | 0.66 | 0.64 | 95 | 1007.9 |
| 20260506113052 | 57 | 0 | 0.0 | 0.9 | 0.08 | 0.64 | 0.62 | 95 | 1008.1 |
| 20260506111555 | 57 | 0 | 0.0 | 1.7 | 0.09 | 0.60 | 0.58 | 95 | 1007.9 |
| 20260506110109 | 57 | 360 | 0.0 | 1.7 | 0.10 | 0.58 | 0.56 | 95 | 1007.8 |
| 20260506104611 | 57 | 0 | 0.0 | 1.7 | 0.13 | 0.58 | 0.56 | 95 | 1007.5 |
| 20260506103050 | 57 | 0 | 0.0 | 3.5 | 0.15 | 0.56 | 0.54 | 95 | 1007.4 |
| 20260506101553 | 57 | 360 | 0.0 | 2.6 | 0.20 | 0.51 | 0.49 | 95 | 1007.1 |
| 20260506094600 | 57 | 0 | 0.0 | 0.9 | 0.18 | 0.45 | 0.43 | 94 | 1006.8 |
| 20260506093053 | 57 | 0 | 0.0 | 2.6 | 0.16 | 0.41 | 0.39 | 94 | 1006.9 |
| 20260506091551 | 57 | 0 | 0.0 | 1.7 | 0.08 | 0.31 | 0.29 | 94 | 1007.1 |
| 20260506090051 | 57 | 0 | 0.0 | 1.7 | 0.12 | 0.29 | 0.27 | 93 | 1007.4 |
| 20260506084624 | 57 | 0 | 0.0 | 1.7 | 0.12 | 0.27 | 0.25 | 93 | 1007.9 |
| 20260506083056 | 57 | 0 | 0.0 | 1.7 | 0.12 | 0.25 | 0.23 | 92 | 1007.8 |
| 20260506081558 | 57 | 0 | 0.0 | 1.7 | 0.11 | 0.23 | 0.21 | 92 | 1007.6 |
| 20260506073052 | 57 | 0 | 0.0 | 2.6 | 0.08 | 0.13 | 0.11 | 91 | 1007.4 |
| 20260506071558 | 57 | 360 | 0.0 | 0.9 | 0.08 | 0.12 | 0.10 | 91 | 1007.5 |
| 20260506061600 | 57 | 360 | 0.0 | 1.7 | 0.00 | 0.04 | 0.02 | 93 | 1007.6 |
| 20260506044554 | 58 | 0 | 0.0 | 0.9 | 0.02 | 0.03 | 0.01 | 91 | 1008.5 |
| 20260506043050 | 58 | 0 | 0.0 | 1.7 | 0.02 | 0.03 | 0.01 | 90 | 1008.3 |
| 20260506041604 | 58 | 0 | 0.0 | 0.9 | 0.03 | 0.03 | 0.01 | 88 | 1008.9 |
| 20260506040053 | 59 | 0 | 0.0 | 0.9 | 0.02 | 0.02 | 0.00 | 86 | 1008.6 |
| 20260506034554 | 59 | 0 | 0.0 | 0.9 | 0.01 | 0.01 | 0.01 | 84 | 1008.6 |
| 20260506033051 | 60 | 360 | 0.0 | 1.7 | 0.01 | 0.01 | 0.01 | 79 | 1008.8 |
| 20260506031555 | 62 | 0 | 0.0 | 1.7 | 0.00 | 0.00 | 0.00 | 72 | 1009.2 |
| 20260506030053 | 63 | 360 | 0.0 | 1.7 | 0.00 | 0.00 | 0.00 | 66 | 1009.4 |
| 20260506024552 | 63 | 0 | 0.0 | 0.9 | 0.00 | 0.00 | 0.00 | 65 | 1009.0 |
| 20260506023104 | 64 | 0 | 0.0 | 0.9 | 0.00 | 0.00 | 0.00 | 65 | 1008.8 |
| 20260506021609 | 64 | 0 | 0.0 | 0.9 | 0.00 | 0.00 | 0.00 | 62 | 1008.8 |
| 20260506020051 | 65 | 0 | 0.0 | 0.9 | 0.00 | 0.00 | 0.00 | 62 | 1008.7 |
| 20260506014551 | 65 | 0 | 0.0 | 0.9 | 0.00 | 0.00 | 0.00 | 57 | 1008.7 |
| 20260506013110 | 67 | 0 | 0.0 | 0.9 | 0.00 | 0.00 | 0.00 | 58 | 1008.7 |
| 20260506011615 | 68 | 360 | 0.0 | 0.9 | 0.00 | 0.00 | 0.00 | 51 | 1009.0 |
| 20260506010100 | 69 | 360 | 0.0 | 0.9 | 0.00 | 0.00 | 0.00 | 47 | 1009.1 |
| 20260506004602 | 69 | 0 | 0.0 | 0.9 | 0.00 | 0.00 | 0.00 | 45 | 1009.0 |
| 20260506003058 | 70 | 0 | 0.0 | 4.3 | 0.00 | 0.00 | 0.00 | 45 | 1009.1 |
| 20260506001556 | 70 | 360 | 0.9 | 8.7 | 0.00 | 0.00 | 0.00 | 44 | 1009.5 |
| 20260506000054 | 70 | 360 | 2.6 | 13.9 | 0.00 | 0.00 | 0.00 | 45 | 1009.9 |
| 20260505234557 | 71 | 0 | 0.0 | 1.7 | 0.00 | 0.00 | 0.00 | 47 | 1009.5 |
| 20260505233104 | 71 | 0 | 0.0 | 1.7 | 0.00 | 0.00 | 0.00 | 47 | 1009.4 |
| 20260505231605 | 72 | 0 | 0.0 | 1.7 | 0.00 | 0.00 | 0.00 | 46 | 1009.3 |
| 20260505230054 | 72 | 0 | 0.0 | 1.7 | 0.00 | 0.00 | 0.00 | 46 | 1009.3 |
| 20260505224602 | 72 | 0 | 0.0 | 4.3 | 0.00 | 0.00 | 0.00 | 47 | 1009.1 |
| 20260505223058 | 73 | 202 | 0.0 | 2.6 | 0.00 | 0.00 | 0.00 | 48 | 1009.4 |
| 20260505221600 | 73 | 0 | 0.0 | 3.5 | 0.00 | 0.00 | 0.00 | 45 | 1009.6 |
| 20260505220101 | 73 | 196 | 0.9 | 8.7 | 0.00 | 0.00 | 0.00 | 43 | 1009.6 |
| 20260505214559 | 73 | 269 | 0.9 | 3.5 | 0.00 | 0.00 | 0.00 | 44 | 1009.5 |
| 20260505213056 | 74 | 0 | 0.9 | 5.2 | 0.00 | 0.00 | 0.00 | 43 | 1009.7 |
| 20260505211555 | 74 | 295 | 1.7 | 8.7 | 0.00 | 0.00 | 0.00 | 44 | 1009.8 |
| 20260505210055 | 74 | 307 | 0.9 | 4.3 | 0.00 | 0.00 | 0.00 | 45 | 1010.1 |
| 20260505204558 | 74 | 0 | 0.9 | 6.1 | 0.00 | 0.00 | 0.00 | 44 | 1010.3 |
| 20260505203117 | 74 | 256 | 0.9 | 3.5 | 0.00 | 0.00 | 0.00 | 46 | 1010.6 |
| 20260505201602 | 73 | 200 | 0.0 | 6.1 | 0.00 | 0.00 | 0.00 | 44 | 1010.6 |
| 20260505200054 | 74 | 0 | 1.7 | 7.8 | 0.00 | 0.00 | 0.00 | 43 | 1010.6 |
| 20260505194554 | 74 | 244 | 2.6 | 7.8 | 0.00 | 0.00 | 0.00 | 43 | 1010.8 |
| 20260505193051 | 74 | 210 | 1.7 | 11.3 | 0.00 | 0.00 | 0.00 | 44 | 1010.9 |
| 20260505191601 | 74 | 261 | 1.7 | 6.1 | 0.00 | 0.00 | 0.00 | 44 | 1011.1 |
| 20260505190054 | 74 | 74 | 1.7 | 9.6 | 0.00 | 0.00 | 0.00 | 42 | 1011.1 |
| 20260505184553 | 74 | 242 | 3.5 | 8.7 | 0.00 | 0.00 | 0.00 | 43 | 1011.1 |
| 20260505183054 | 74 | 302 | 1.7 | 12.2 | 0.00 | 0.00 | 0.00 | 43 | 1011.2 |
| 20260505181552 | 75 | 142 | 2.6 | 8.7 | 0.00 | 0.00 | 0.00 | 41 | 1011.2 |
| 20260505180100 | 75 | 302 | 2.6 | 7.8 | 0.00 | 0.00 | 0.00 | 43 | 1011.2 |
| 20260505174555 | 75 | 155 | 1.7 | 8.7 | 0.00 | 0.00 | 0.00 | 43 | 1011.2 |
| 20260505173057 | 75 | 94 | 2.6 | 9.6 | 0.00 | 0.00 | 0.00 | 44 | 1011.2 |
| 20260505171557 | 76 | 219 | 1.7 | 7.0 | 0.00 | 0.00 | 0.00 | 43 | 1011.2 |
| 20260505170110 | 76 | 236 | 0.9 | 7.8 | 0.00 | 0.00 | 0.00 | 44 | 1011.3 |